owner,sensor,date,latitude,longitude,vertical_datum,sea_water_practical_salinity,qcFlag 
SCCF RECON,ioos:station:SCCF:56:1,2014-05-01T00:00:00Z,26.4645,-82.1044,1.47,34.29,1111122 
SCCF RECON,ioos:station:SCCF:56:1,2014-05-01T01:00:00Z,26.4645,-82.1044,1.35,34.38,1111122 
SCCF RECON,ioos:station:SCCF:56:1,2014-05-01T02:00:00Z,26.4645,-82.1044,1.24,34.46,1111122 
SCCF RECON,ioos:station:SCCF:56:1,2014-05-01T03:00:00Z,26.4645,-82.1044,1.17,34.53,1111122 
SCCF RECON,ioos:station:SCCF:56:1,2014-05-01T04:00:00Z,26.4645,-82.1044,1.17,34.41,1111122 
SCCF RECON,ioos:station:SCCF:56:1,2014-05-01T05:00:00Z,26.4645,-82.1044,1.23,34.37,1111122 
SCCF RECON,ioos:station:SCCF:56:1,2014-05-01T06:00:00Z,26.4645,-82.1044,1.37,34.41,1111122 
SCCF RECON,ioos:station:SCCF:56:1,2014-05-01T07:00:00Z,26.4645,-82.1044,1.48,34.45,1111122 
SCCF RECON,ioos:station:SCCF:56:1,2014-05-01T08:00:00Z,26.4645,-82.1044,1.58,34.43,1111122 
SCCF RECON,ioos:station:SCCF:56:1,2014-05-01T09:00:00Z,26.4645,-82.1044,1.63,34.42,1111122 
SCCF RECON,ioos:station:SCCF:56:1,2014-05-01T10:00:00Z,26.4645,-82.1044,1.62,34.44,1111122 
SCCF RECON,ioos:station:SCCF:56:1,2014-05-01T11:00:00Z,26.4645,-82.1044,1.59,34.47,1111122 
SCCF RECON,ioos:station:SCCF:56:1,2014-05-01T12:00:00Z,26.4645,-82.1044,1.56,34.47,1111122 
SCCF RECON,ioos:station:SCCF:56:1,2014-05-01T13:00:00Z,26.4645,-82.1044,1.545,34.45,1111122 
SCCF RECON,ioos:station:SCCF:56:1,2014-05-01T14:00:00Z,26.4645,-82.1044,1.55,34.44,1111122 
SCCF RECON,ioos:station:SCCF:56:1,2014-05-01T15:00:00Z,26.4645,-82.1044,1.6,34.47,1111122 
SCCF RECON,ioos:station:SCCF:56:1,2014-05-01T16:00:00Z,26.4645,-82.1044,1.68,34.46,1111122 
SCCF RECON,ioos:station:SCCF:56:1,2014-05-01T17:00:00Z,26.4645,-82.1044,1.78,34.46,1111122 
SCCF RECON,ioos:station:SCCF:56:1,2014-05-01T18:00:00Z,26.4645,-82.1044,1.851,34.47,1111122 
SCCF RECON,ioos:station:SCCF:56:1,2014-05-01T19:00:00Z,26.4645,-82.1044,1.91,34.47,1111122 
SCCF RECON,ioos:station:SCCF:56:1,2014-05-01T20:00:00Z,26.4645,-82.1044,1.93,34.48,1111122 
SCCF RECON,ioos:station:SCCF:56:1,2014-05-01T21:00:00Z,26.4645,-82.1044,1.899,34.5,1111122 
SCCF RECON,ioos:station:SCCF:56:1,2014-05-01T22:00:00Z,26.4645,-82.1044,1.82,34.52,1111122 
SCCF RECON,ioos:station:SCCF:56:1,2014-05-01T23:00:00Z,26.4645,-82.1044,1.7,34.54,1111122 
SCCF RECON,ioos:station:SCCF:56:1,2014-05-02T00:00:00Z,26.4645,-82.1044,1.57,34.57,1111122 
SCCF RECON,ioos:station:SCCF:56:1,2014-05-02T01:00:00Z,26.4645,-82.1044,1.45,34.61,1111122 
SCCF RECON,ioos:station:SCCF:56:1,2014-05-02T02:00:00Z,26.4645,-82.1044,1.34,34.66,1111122 
SCCF RECON,ioos:station:SCCF:56:1,2014-05-02T03:00:00Z,26.4645,-82.1044,1.25,34.72,1111122 
SCCF RECON,ioos:station:SCCF:56:1,2014-05-02T04:00:00Z,26.4645,-82.1044,1.223,34.72,1111122 
SCCF RECON,ioos:station:SCCF:56:1,2014-05-02T05:00:00Z,26.4645,-82.1044,1.25,34.6,1111122 
SCCF RECON,ioos:station:SCCF:56:1,2014-05-02T06:00:00Z,26.4645,-82.1044,1.33,34.51,1111122 
SCCF RECON,ioos:station:SCCF:56:1,2014-05-02T07:00:00Z,26.4645,-82.1044,1.44,34.37,1111122 
SCCF RECON,ioos:station:SCCF:56:1,2014-05-02T08:00:00Z,26.4645,-82.1044,1.54,34.43,1111122 
SCCF RECON,ioos:station:SCCF:56:1,2014-05-02T09:00:00Z,26.4645,-82.1044,1.61,34.42,1111122 
SCCF RECON,ioos:station:SCCF:56:1,2014-05-02T10:00:00Z,26.4645,-82.1044,1.64,34.46,1111122 
SCCF RECON,ioos:station:SCCF:56:1,2014-05-02T11:00:00Z,26.4645,-82.1044,1.64,34.45,1111122 
SCCF RECON,ioos:station:SCCF:56:1,2014-05-02T12:00:00Z,26.4645,-82.1044,1.621,34.48,1111122 
SCCF RECON,ioos:station:SCCF:56:1,2014-05-02T13:00:00Z,26.4645,-82.1044,1.59,34.49,1111122 
SCCF RECON,ioos:station:SCCF:56:1,2014-05-02T14:00:00Z,26.4645,-82.1044,1.58,34.5,1111122 
SCCF RECON,ioos:station:SCCF:56:1,2014-05-02T15:00:00Z,26.4645,-82.1044,1.6,34.5,1111122 
SCCF RECON,ioos:station:SCCF:56:1,2014-05-02T16:00:00Z,26.4645,-82.1044,1.66,34.52,1111122 
SCCF RECON,ioos:station:SCCF:56:1,2014-05-02T17:00:00Z,26.4645,-82.1044,1.74,34.52,1111122 
SCCF RECON,ioos:station:SCCF:56:1,2014-05-02T18:00:00Z,26.4645,-82.1044,1.82,34.55,1111122 
SCCF RECON,ioos:station:SCCF:56:1,2014-05-02T19:00:00Z,26.4645,-82.1044,1.87,34.56,1111122 
SCCF RECON,ioos:station:SCCF:56:1,2014-05-02T20:00:00Z,26.4645,-82.1044,1.91,34.57,1111122 
SCCF RECON,ioos:station:SCCF:56:1,2014-05-02T21:00:00Z,26.4645,-82.1044,1.93,34.56,1111122 
SCCF RECON,ioos:station:SCCF:56:1,2014-05-02T22:00:00Z,26.4645,-82.1044,1.91,34.58,1111122 
SCCF RECON,ioos:station:SCCF:56:1,2014-05-02T23:00:00Z,26.4645,-82.1044,1.86,34.59,1111122 
SCCF RECON,ioos:station:SCCF:56:1,2014-05-03T00:00:00Z,26.4645,-82.1044,1.785,34.47,1111122 
SCCF RECON,ioos:station:SCCF:56:1,2014-05-03T01:00:00Z,26.4645,-82.1044,1.659,34.46,1111122 
SCCF RECON,ioos:station:SCCF:56:1,2014-05-03T02:00:00Z,26.4645,-82.1044,1.53,34.51,1111122 
SCCF RECON,ioos:station:SCCF:56:1,2014-05-03T03:00:00Z,26.4645,-82.1044,1.41,34.56,1111122 
SCCF RECON,ioos:station:SCCF:56:1,2014-05-03T04:00:00Z,26.4645,-82.1044,1.33,34.58,1111122 
SCCF RECON,ioos:station:SCCF:56:1,2014-05-03T05:00:00Z,26.4645,-82.1044,1.31,34.55,1111122 
SCCF RECON,ioos:station:SCCF:56:1,2014-05-03T06:00:00Z,26.4645,-82.1044,1.35,34.52,1111122 
SCCF RECON,ioos:station:SCCF:56:1,2014-05-03T07:00:00Z,26.4645,-82.1044,1.42,34.52,1111122 
SCCF RECON,ioos:station:SCCF:56:1,2014-05-03T08:00:00Z,26.4645,-82.1044,1.52,34.52,1111122 
SCCF RECON,ioos:station:SCCF:56:1,2014-05-03T09:00:00Z,26.4645,-82.1044,1.61,34.54,1111122 
SCCF RECON,ioos:station:SCCF:56:1,2014-05-03T10:00:00Z,26.4645,-82.1044,1.67,34.55,1111122 
SCCF RECON,ioos:station:SCCF:56:1,2014-05-03T11:00:00Z,26.4645,-82.1044,1.68,34.56,1111122 
SCCF RECON,ioos:station:SCCF:56:1,2014-05-03T12:00:00Z,26.4645,-82.1044,1.68,34.55,1111122 
SCCF RECON,ioos:station:SCCF:56:1,2014-05-03T13:00:00Z,26.4645,-82.1044,1.67,34.56,1111122 
SCCF RECON,ioos:station:SCCF:56:1,2014-05-03T14:00:00Z,26.4645,-82.1044,1.652,34.51,1111122 
SCCF RECON,ioos:station:SCCF:56:1,2014-05-03T15:00:00Z,26.4645,-82.1044,1.68,34.55,1111122 
SCCF RECON,ioos:station:SCCF:56:1,2014-05-03T16:00:00Z,26.4645,-82.1044,1.71,34.56,1111122 
SCCF RECON,ioos:station:SCCF:56:1,2014-05-03T17:00:00Z,26.4645,-82.1044,1.756,34.46,1111122 
SCCF RECON,ioos:station:SCCF:56:1,2014-05-03T18:00:00Z,26.4645,-82.1044,1.83,34.16,1111122 
SCCF RECON,ioos:station:SCCF:56:1,2014-05-03T19:00:00Z,26.4645,-82.1044,1.9,34.22,1111122 
SCCF RECON,ioos:station:SCCF:56:1,2014-05-03T20:00:00Z,26.4645,-82.1044,1.91,34.25,1111122 
SCCF RECON,ioos:station:SCCF:56:1,2014-05-03T21:00:00Z,26.4645,-82.1044,1.92,34.23,1111122 
SCCF RECON,ioos:station:SCCF:56:1,2014-05-03T22:00:00Z,26.4645,-82.1044,1.91,34.24,1111122 
SCCF RECON,ioos:station:SCCF:56:1,2014-05-03T23:00:00Z,26.4645,-82.1044,1.87,34.22,1111122 
SCCF RECON,ioos:station:SCCF:56:1,2014-05-04T00:00:00Z,26.4645,-82.1044,1.79,34.17,1111122 
SCCF RECON,ioos:station:SCCF:56:1,2014-05-04T01:00:00Z,26.4645,-82.1044,1.68,34.06,1111122 
SCCF RECON,ioos:station:SCCF:56:1,2014-05-04T02:00:00Z,26.4645,-82.1044,1.57,34.05,1111122 
SCCF RECON,ioos:station:SCCF:56:1,2014-05-04T03:00:00Z,26.4645,-82.1044,1.46,34.08,1111122 
SCCF RECON,ioos:station:SCCF:56:1,2014-05-04T04:00:00Z,26.4645,-82.1044,1.371,34.07,1111122 
SCCF RECON,ioos:station:SCCF:56:1,2014-05-04T05:00:00Z,26.4645,-82.1044,1.31,34.09,1111122 
SCCF RECON,ioos:station:SCCF:56:1,2014-05-04T06:00:00Z,26.4645,-82.1044,1.28,34.07,1111122 
SCCF RECON,ioos:station:SCCF:56:1,2014-05-04T07:00:00Z,26.4645,-82.1044,1.33,33.99,1111122 
SCCF RECON,ioos:station:SCCF:56:1,2014-05-04T08:00:00Z,26.4645,-82.1044,1.39,34.0,1111122 
SCCF RECON,ioos:station:SCCF:56:1,2014-05-04T09:00:00Z,26.4645,-82.1044,1.47,34.15,1111122 
SCCF RECON,ioos:station:SCCF:56:1,2014-05-04T10:00:00Z,26.4645,-82.1044,1.52,34.14,1111122 
SCCF RECON,ioos:station:SCCF:56:1,2014-05-04T11:00:00Z,26.4645,-82.1044,1.53,34.15,1111122 
SCCF RECON,ioos:station:SCCF:56:1,2014-05-04T12:00:00Z,26.4645,-82.1044,1.52,34.13,1111122 
SCCF RECON,ioos:station:SCCF:56:1,2014-05-04T13:00:00Z,26.4645,-82.1044,1.482,34.15,1111122 
SCCF RECON,ioos:station:SCCF:56:1,2014-05-04T14:00:00Z,26.4645,-82.1044,1.46,34.16,1111122 
SCCF RECON,ioos:station:SCCF:56:1,2014-05-04T15:00:00Z,26.4645,-82.1044,1.45,34.2,1111122 
SCCF RECON,ioos:station:SCCF:56:1,2014-05-04T16:00:00Z,26.4645,-82.1044,1.46,34.13,1111122 
SCCF RECON,ioos:station:SCCF:56:1,2014-05-04T17:00:00Z,26.4645,-82.1044,1.48,34.14,1111122 
SCCF RECON,ioos:station:SCCF:56:1,2014-05-04T18:00:00Z,26.4645,-82.1044,1.53,34.05,1111122 
SCCF RECON,ioos:station:SCCF:56:1,2014-05-04T19:00:00Z,26.4645,-82.1044,1.58,34.1,1111122 
SCCF RECON,ioos:station:SCCF:56:1,2014-05-04T20:00:00Z,26.4645,-82.1044,1.618,34.16,1111122 
SCCF RECON,ioos:station:SCCF:56:1,2014-05-04T21:00:00Z,26.4645,-82.1044,1.65,34.13,1111122 
SCCF RECON,ioos:station:SCCF:56:1,2014-05-04T22:00:00Z,26.4645,-82.1044,1.68,34.13,1111122 
SCCF RECON,ioos:station:SCCF:56:1,2014-05-04T23:00:00Z,26.4645,-82.1044,1.68,34.14,1111122 
SCCF RECON,ioos:station:SCCF:56:1,2014-05-05T00:00:00Z,26.4645,-82.1044,1.62,34.19,1111122 
SCCF RECON,ioos:station:SCCF:56:1,2014-05-05T01:00:00Z,26.4645,-82.1044,1.56,34.3,1111122 
SCCF RECON,ioos:station:SCCF:56:1,2014-05-05T02:00:00Z,26.4645,-82.1044,1.49,34.36,1111122 
SCCF RECON,ioos:station:SCCF:56:1,2014-05-05T03:00:00Z,26.4645,-82.1044,1.412,34.48,1111122 
SCCF RECON,ioos:station:SCCF:56:1,2014-05-05T04:00:00Z,26.4645,-82.1044,1.34,34.54,1111122 
SCCF RECON,ioos:station:SCCF:56:1,2014-05-05T05:00:00Z,26.4645,-82.1044,1.27,34.55,1111122 
SCCF RECON,ioos:station:SCCF:56:1,2014-05-05T06:00:00Z,26.4645,-82.1044,1.237,34.51,1111122 
SCCF RECON,ioos:station:SCCF:56:1,2014-05-05T07:00:00Z,26.4645,-82.1044,1.22,34.29,1111122 
SCCF RECON,ioos:station:SCCF:56:1,2014-05-05T08:00:00Z,26.4645,-82.1044,1.29,34.34,1111122 
SCCF RECON,ioos:station:SCCF:56:1,2014-05-05T09:00:00Z,26.4645,-82.1044,1.36,34.32,1111122 
SCCF RECON,ioos:station:SCCF:56:1,2014-05-05T10:00:00Z,26.4645,-82.1044,1.44,34.32,1111122 
SCCF RECON,ioos:station:SCCF:56:1,2014-05-05T11:00:00Z,26.4645,-82.1044,1.51,34.34,1111122 
SCCF RECON,ioos:station:SCCF:56:1,2014-05-05T12:00:00Z,26.4645,-82.1044,1.56,34.34,1111122 
SCCF RECON,ioos:station:SCCF:56:1,2014-05-05T13:00:00Z,26.4645,-82.1044,1.58,34.32,1111122 
SCCF RECON,ioos:station:SCCF:56:1,2014-05-05T14:00:00Z,26.4645,-82.1044,1.59,34.35,1111122 
SCCF RECON,ioos:station:SCCF:56:1,2014-05-05T15:00:00Z,26.4645,-82.1044,1.591,34.33,1111122 
SCCF RECON,ioos:station:SCCF:56:1,2014-05-05T16:00:00Z,26.4645,-82.1044,1.6,34.35,1111122 
SCCF RECON,ioos:station:SCCF:56:1,2014-05-05T17:00:00Z,26.4645,-82.1044,1.65,34.35,1111122 
SCCF RECON,ioos:station:SCCF:56:1,2014-05-05T18:00:00Z,26.4645,-82.1044,1.69,34.32,1111122 
SCCF RECON,ioos:station:SCCF:56:1,2014-05-05T19:00:00Z,26.4645,-82.1044,1.72,33.98,1111122 
SCCF RECON,ioos:station:SCCF:56:1,2014-05-05T20:00:00Z,26.4645,-82.1044,1.73,33.69,1111122 
SCCF RECON,ioos:station:SCCF:56:1,2014-05-05T21:00:00Z,26.4645,-82.1044,1.74,33.78,1111122 
SCCF RECON,ioos:station:SCCF:56:1,2014-05-05T22:00:00Z,26.4645,-82.1044,1.72,34.05,1111122 
SCCF RECON,ioos:station:SCCF:56:1,2014-05-05T23:00:00Z,26.4645,-82.1044,1.72,33.88,1111122 
SCCF RECON,ioos:station:SCCF:56:1,2014-05-06T00:00:00Z,26.4645,-82.1044,1.7,34.07,1111122 
SCCF RECON,ioos:station:SCCF:56:1,2014-05-06T01:00:00Z,26.4645,-82.1044,1.65,34.24,1111122 
SCCF RECON,ioos:station:SCCF:56:1,2014-05-06T02:00:00Z,26.4645,-82.1044,1.61,34.4,1111122 
SCCF RECON,ioos:station:SCCF:56:1,2014-05-06T03:00:00Z,26.4645,-82.1044,1.54,34.44,1111122 
SCCF RECON,ioos:station:SCCF:56:1,2014-05-06T04:00:00Z,26.4645,-82.1044,1.47,34.53,1111122 
SCCF RECON,ioos:station:SCCF:56:1,2014-05-06T05:00:00Z,26.4645,-82.1044,1.4,34.65,1111122 
SCCF RECON,ioos:station:SCCF:56:1,2014-05-06T06:00:00Z,26.4645,-82.1044,1.34,34.65,1111122 
SCCF RECON,ioos:station:SCCF:56:1,2014-05-06T07:00:00Z,26.4645,-82.1044,1.31,34.45,1111122 
SCCF RECON,ioos:station:SCCF:56:1,2014-05-06T08:00:00Z,26.4645,-82.1044,1.32,34.12,1111122 
SCCF RECON,ioos:station:SCCF:56:1,2014-05-06T09:00:00Z,26.4645,-82.1044,1.37,34.14,1111122 
SCCF RECON,ioos:station:SCCF:56:1,2014-05-06T10:00:00Z,26.4645,-82.1044,1.44,34.17,1111122 
SCCF RECON,ioos:station:SCCF:56:1,2014-05-06T11:00:00Z,26.4645,-82.1044,1.52,34.11,1111122 
SCCF RECON,ioos:station:SCCF:56:1,2014-05-06T12:00:00Z,26.4645,-82.1044,1.59,34.02,1111122 
SCCF RECON,ioos:station:SCCF:56:1,2014-05-06T13:00:00Z,26.4645,-82.1044,1.64,34.1,1111122 
SCCF RECON,ioos:station:SCCF:56:1,2014-05-06T14:00:00Z,26.4645,-82.1044,1.67,34.14,1111122 
SCCF RECON,ioos:station:SCCF:56:1,2014-05-06T15:00:00Z,26.4645,-82.1044,1.69,34.12,1111122 
SCCF RECON,ioos:station:SCCF:56:1,2014-05-06T16:00:00Z,26.4645,-82.1044,1.68,34.14,1111122 
SCCF RECON,ioos:station:SCCF:56:1,2014-05-06T17:00:00Z,26.4645,-82.1044,1.67,34.13,1111122 
SCCF RECON,ioos:station:SCCF:56:1,2014-05-06T18:00:00Z,26.4645,-82.1044,1.66,34.14,1111122 
SCCF RECON,ioos:station:SCCF:56:1,2014-05-06T19:00:00Z,26.4645,-82.1044,1.68,34.16,1111122 
SCCF RECON,ioos:station:SCCF:56:1,2014-05-06T20:00:00Z,26.4645,-82.1044,1.71,34.01,1111122 
SCCF RECON,ioos:station:SCCF:56:1,2014-05-06T21:00:00Z,26.4645,-82.1044,1.73,33.97,1111122 
SCCF RECON,ioos:station:SCCF:56:1,2014-05-06T22:00:00Z,26.4645,-82.1044,1.73,33.9,1111122 
SCCF RECON,ioos:station:SCCF:56:1,2014-05-06T23:00:00Z,26.4645,-82.1044,1.72,33.94,1111122 
SCCF RECON,ioos:station:SCCF:56:1,2014-05-07T00:00:00Z,26.4645,-82.1044,1.7,33.88,1111122 
SCCF RECON,ioos:station:SCCF:56:1,2014-05-07T01:00:00Z,26.4645,-82.1044,1.7,33.89,1111122 
SCCF RECON,ioos:station:SCCF:56:1,2014-05-07T02:00:00Z,26.4645,-82.1044,1.66,34.16,1111122 
SCCF RECON,ioos:station:SCCF:56:1,2014-05-07T03:00:00Z,26.4645,-82.1044,1.61,34.25,1111122 
SCCF RECON,ioos:station:SCCF:56:1,2014-05-07T04:00:00Z,26.4645,-82.1044,1.568,34.39,1111122 
SCCF RECON,ioos:station:SCCF:56:1,2014-05-07T05:00:00Z,26.4645,-82.1044,1.505,34.47,1111122 
SCCF RECON,ioos:station:SCCF:56:1,2014-05-07T06:00:00Z,26.4645,-82.1044,1.46,34.6,1111122 
SCCF RECON,ioos:station:SCCF:56:1,2014-05-07T07:00:00Z,26.4645,-82.1044,1.41,34.59,1111122 
SCCF RECON,ioos:station:SCCF:56:1,2014-05-07T08:00:00Z,26.4645,-82.1044,1.38,34.58,1111122 
SCCF RECON,ioos:station:SCCF:56:1,2014-05-07T09:00:00Z,26.4645,-82.1044,1.37,34.25,1111122 
SCCF RECON,ioos:station:SCCF:56:1,2014-05-07T10:00:00Z,26.4645,-82.1044,1.43,34.19,1111122 
SCCF RECON,ioos:station:SCCF:56:1,2014-05-07T11:00:00Z,26.4645,-82.1044,1.518,34.12,1111122 
SCCF RECON,ioos:station:SCCF:56:1,2014-05-07T12:00:00Z,26.4645,-82.1044,1.6,34.06,1111122 
SCCF RECON,ioos:station:SCCF:56:1,2014-05-07T13:00:00Z,26.4645,-82.1044,1.67,34.02,1111122 
SCCF RECON,ioos:station:SCCF:56:1,2014-05-07T14:00:00Z,26.4645,-82.1044,1.73,34.0,1111122 
SCCF RECON,ioos:station:SCCF:56:1,2014-05-07T15:00:00Z,26.4645,-82.1044,1.75,34.08,1111122 
SCCF RECON,ioos:station:SCCF:56:1,2014-05-07T16:00:00Z,26.4645,-82.1044,1.77,34.08,1111122 
SCCF RECON,ioos:station:SCCF:56:1,2014-05-07T17:00:00Z,26.4645,-82.1044,1.75,34.13,1111122 
SCCF RECON,ioos:station:SCCF:56:1,2014-05-07T18:00:00Z,26.4645,-82.1044,1.72,34.24,1111122 
SCCF RECON,ioos:station:SCCF:56:1,2014-05-07T19:00:00Z,26.4645,-82.1044,1.7,34.28,1111122 
SCCF RECON,ioos:station:SCCF:56:1,2014-05-07T20:00:00Z,26.4645,-82.1044,1.68,34.31,1111122 
SCCF RECON,ioos:station:SCCF:56:1,2014-05-07T21:00:00Z,26.4645,-82.1044,1.675,34.2,1111122 
SCCF RECON,ioos:station:SCCF:56:1,2014-05-07T22:00:00Z,26.4645,-82.1044,1.68,34.05,1111122 
SCCF RECON,ioos:station:SCCF:56:1,2014-05-07T23:00:00Z,26.4645,-82.1044,1.67,33.99,1111122 
SCCF RECON,ioos:station:SCCF:56:1,2014-05-08T00:00:00Z,26.4645,-82.1044,1.66,33.96,1111122 
SCCF RECON,ioos:station:SCCF:56:1,2014-05-08T01:00:00Z,26.4645,-82.1044,1.67,33.98,1111122 
SCCF RECON,ioos:station:SCCF:56:1,2014-05-08T02:00:00Z,26.4645,-82.1044,1.69,34.1,1111122 
SCCF RECON,ioos:station:SCCF:56:1,2014-05-08T03:00:00Z,26.4645,-82.1044,1.7,34.11,1111122 
SCCF RECON,ioos:station:SCCF:56:1,2014-05-08T04:00:00Z,26.4645,-82.1044,1.66,34.26,1111122 
SCCF RECON,ioos:station:SCCF:56:1,2014-05-08T05:00:00Z,26.4645,-82.1044,1.6,34.42,1111122 
SCCF RECON,ioos:station:SCCF:56:1,2014-05-08T06:00:00Z,26.4645,-82.1044,1.51,34.6,1111122 
SCCF RECON,ioos:station:SCCF:56:1,2014-05-08T07:00:00Z,26.4645,-82.1044,1.422,34.79,1111122 
SCCF RECON,ioos:station:SCCF:56:1,2014-05-08T08:00:00Z,26.4645,-82.1044,1.355,34.89,1111122 
SCCF RECON,ioos:station:SCCF:56:1,2014-05-08T09:00:00Z,26.4645,-82.1044,1.32,34.45,1111122 
SCCF RECON,ioos:station:SCCF:56:1,2014-05-08T10:00:00Z,26.4645,-82.1044,1.33,34.2,1111122 
SCCF RECON,ioos:station:SCCF:56:1,2014-05-08T11:00:00Z,26.4645,-82.1044,1.42,34.13,1111122 
SCCF RECON,ioos:station:SCCF:56:1,2014-05-08T12:00:00Z,26.4645,-82.1044,1.51,34.01,1111122 
SCCF RECON,ioos:station:SCCF:56:1,2014-05-08T13:00:00Z,26.4645,-82.1044,1.59,33.83,1111122 
SCCF RECON,ioos:station:SCCF:56:1,2014-05-08T14:00:00Z,26.4645,-82.1044,1.66,34.12,1111122 
SCCF RECON,ioos:station:SCCF:56:1,2014-05-08T15:00:00Z,26.4645,-82.1044,1.702,34.21,1111122 
SCCF RECON,ioos:station:SCCF:56:1,2014-05-08T16:00:00Z,26.4645,-82.1044,1.73,34.16,1111122 
SCCF RECON,ioos:station:SCCF:56:1,2014-05-08T17:00:00Z,26.4645,-82.1044,1.73,34.12,1111122 
SCCF RECON,ioos:station:SCCF:56:1,2014-05-08T18:00:00Z,26.4645,-82.1044,1.72,34.23,1111122 
SCCF RECON,ioos:station:SCCF:56:1,2014-05-08T19:00:00Z,26.4645,-82.1044,1.68,34.31,1111122 
SCCF RECON,ioos:station:SCCF:56:1,2014-05-08T20:00:00Z,26.4645,-82.1044,1.64,34.39,1111122 
SCCF RECON,ioos:station:SCCF:56:1,2014-05-08T21:00:00Z,26.4645,-82.1044,1.62,34.45,1111122 
SCCF RECON,ioos:station:SCCF:56:1,2014-05-08T22:00:00Z,26.4645,-82.1044,1.62,34.21,1111122 
SCCF RECON,ioos:station:SCCF:56:1,2014-05-08T23:00:00Z,26.4645,-82.1044,1.64,33.97,1111122 
SCCF RECON,ioos:station:SCCF:56:1,2014-05-09T00:00:00Z,26.4645,-82.1044,1.64,33.87,1111122 
SCCF RECON,ioos:station:SCCF:56:1,2014-05-09T01:00:00Z,26.4645,-82.1044,1.66,33.78,1111122 
SCCF RECON,ioos:station:SCCF:56:1,2014-05-09T02:00:00Z,26.4645,-82.1044,1.69,33.76,1111122 
SCCF RECON,ioos:station:SCCF:56:1,2014-05-09T03:00:00Z,26.4645,-82.1044,1.71,33.79,1111122 
SCCF RECON,ioos:station:SCCF:56:1,2014-05-09T04:00:00Z,26.4645,-82.1044,1.71,33.87,1111122 
SCCF RECON,ioos:station:SCCF:56:1,2014-05-09T05:00:00Z,26.4645,-82.1044,1.69,34.07,1111122 
SCCF RECON,ioos:station:SCCF:56:1,2014-05-09T06:00:00Z,26.4645,-82.1044,1.62,34.32,1111122 
SCCF RECON,ioos:station:SCCF:56:1,2014-05-09T07:00:00Z,26.4645,-82.1044,1.53,34.55,1111122 
SCCF RECON,ioos:station:SCCF:56:1,2014-05-09T08:00:00Z,26.4645,-82.1044,1.44,34.76,1111122 
SCCF RECON,ioos:station:SCCF:56:1,2014-05-09T09:00:00Z,26.4645,-82.1044,1.38,34.81,1111122 
SCCF RECON,ioos:station:SCCF:56:1,2014-05-09T10:00:00Z,26.4645,-82.1044,1.357,34.57,1111122 
SCCF RECON,ioos:station:SCCF:56:1,2014-05-09T11:00:00Z,26.4645,-82.1044,1.39,34.26,1111122 
SCCF RECON,ioos:station:SCCF:56:1,2014-05-09T12:00:00Z,26.4645,-82.1044,1.47,34.1,1111122 
SCCF RECON,ioos:station:SCCF:56:1,2014-05-09T13:00:00Z,26.4645,-82.1044,1.57,33.91,1111122 
SCCF RECON,ioos:station:SCCF:56:1,2014-05-09T14:00:00Z,26.4645,-82.1044,1.652,33.85,1111122 
SCCF RECON,ioos:station:SCCF:56:1,2014-05-09T15:00:00Z,26.4645,-82.1044,1.71,33.97,1111122 
SCCF RECON,ioos:station:SCCF:56:1,2014-05-09T16:00:00Z,26.4645,-82.1044,1.75,33.98,1111122 
SCCF RECON,ioos:station:SCCF:56:1,2014-05-09T17:00:00Z,26.4645,-82.1044,1.75,34.03,1111122 
SCCF RECON,ioos:station:SCCF:56:1,2014-05-09T18:00:00Z,26.4645,-82.1044,1.74,34.12,1111122 
SCCF RECON,ioos:station:SCCF:56:1,2014-05-09T19:00:00Z,26.4645,-82.1044,1.7,34.24,1111122 
SCCF RECON,ioos:station:SCCF:56:1,2014-05-09T20:00:00Z,26.4645,-82.1044,1.64,34.36,1111122 
SCCF RECON,ioos:station:SCCF:56:1,2014-05-09T21:00:00Z,26.4645,-82.1044,1.576,34.49,1111122 
SCCF RECON,ioos:station:SCCF:56:1,2014-05-09T22:00:00Z,26.4645,-82.1044,1.54,34.55,1111122 
SCCF RECON,ioos:station:SCCF:56:1,2014-05-09T23:00:00Z,26.4645,-82.1044,1.52,34.36,1111122 
SCCF RECON,ioos:station:SCCF:56:1,2014-05-10T00:00:00Z,26.4645,-82.1044,1.53,34.11,1111122 
SCCF RECON,ioos:station:SCCF:56:1,2014-05-10T01:00:00Z,26.4645,-82.1044,1.55,33.96,1111122 
SCCF RECON,ioos:station:SCCF:56:1,2014-05-10T02:00:00Z,26.4645,-82.1044,1.6,33.94,1111122 
SCCF RECON,ioos:station:SCCF:56:1,2014-05-10T03:00:00Z,26.4645,-82.1044,1.659,33.96,1111122 
SCCF RECON,ioos:station:SCCF:56:1,2014-05-10T04:00:00Z,26.4645,-82.1044,1.7,34.01,1111122 
SCCF RECON,ioos:station:SCCF:56:1,2014-05-10T05:00:00Z,26.4645,-82.1044,1.7,34.11,1111122 
SCCF RECON,ioos:station:SCCF:56:1,2014-05-10T06:00:00Z,26.4645,-82.1044,1.668,34.24,1111122 
SCCF RECON,ioos:station:SCCF:56:1,2014-05-10T07:00:00Z,26.4645,-82.1044,1.6,34.43,1111122 
SCCF RECON,ioos:station:SCCF:56:1,2014-05-10T08:00:00Z,26.4645,-82.1044,1.53,34.52,1111122 
SCCF RECON,ioos:station:SCCF:56:1,2014-05-10T09:00:00Z,26.4645,-82.1044,1.47,34.72,1111122 
SCCF RECON,ioos:station:SCCF:56:1,2014-05-10T10:00:00Z,26.4645,-82.1044,1.43,34.65,1111122 
SCCF RECON,ioos:station:SCCF:56:1,2014-05-10T11:00:00Z,26.4645,-82.1044,1.43,34.37,1111122 
SCCF RECON,ioos:station:SCCF:56:1,2014-05-10T12:00:00Z,26.4645,-82.1044,1.5,34.13,1111122 
SCCF RECON,ioos:station:SCCF:56:1,2014-05-10T13:00:00Z,26.4645,-82.1044,1.58,34.05,1111122 
SCCF RECON,ioos:station:SCCF:56:1,2014-05-10T14:00:00Z,26.4645,-82.1044,1.67,33.97,1111122 
SCCF RECON,ioos:station:SCCF:56:1,2014-05-10T15:00:00Z,26.4645,-82.1044,1.75,33.93,1111122 
SCCF RECON,ioos:station:SCCF:56:1,2014-05-10T16:00:00Z,26.4645,-82.1044,1.81,34.0,1111122 
SCCF RECON,ioos:station:SCCF:56:1,2014-05-10T17:00:00Z,26.4645,-82.1044,1.82,34.0,1111122 
SCCF RECON,ioos:station:SCCF:56:1,2014-05-10T18:00:00Z,26.4645,-82.1044,1.8,34.15,1111122 
SCCF RECON,ioos:station:SCCF:56:1,2014-05-10T19:00:00Z,26.4645,-82.1044,1.73,34.35,1111122 
SCCF RECON,ioos:station:SCCF:56:1,2014-05-10T20:00:00Z,26.4645,-82.1044,1.64,34.48,1111122 
SCCF RECON,ioos:station:SCCF:56:1,2014-05-10T21:00:00Z,26.4645,-82.1044,1.573,34.57,1111122 
SCCF RECON,ioos:station:SCCF:56:1,2014-05-10T22:00:00Z,26.4645,-82.1044,1.52,34.61,1111122 
SCCF RECON,ioos:station:SCCF:56:1,2014-05-10T23:00:00Z,26.4645,-82.1044,1.488,34.64,1111122 
SCCF RECON,ioos:station:SCCF:56:1,2014-05-11T00:00:00Z,26.4645,-82.1044,1.476,34.5,1111122 
SCCF RECON,ioos:station:SCCF:56:1,2014-05-11T01:00:00Z,26.4645,-82.1044,1.49,34.42,1111122 
SCCF RECON,ioos:station:SCCF:56:1,2014-05-11T02:00:00Z,26.4645,-82.1044,1.533,34.35,1111122 
SCCF RECON,ioos:station:SCCF:56:1,2014-05-11T03:00:00Z,26.4645,-82.1044,1.6,34.33,1111122 
SCCF RECON,ioos:station:SCCF:56:1,2014-05-11T04:00:00Z,26.4645,-82.1044,1.65,34.3,1111122 
SCCF RECON,ioos:station:SCCF:56:1,2014-05-11T05:00:00Z,26.4645,-82.1044,1.69,34.26,1111122 
SCCF RECON,ioos:station:SCCF:56:1,2014-05-11T06:00:00Z,26.4645,-82.1044,1.69,34.29,1111122 
SCCF RECON,ioos:station:SCCF:56:1,2014-05-11T07:00:00Z,26.4645,-82.1044,1.66,34.38,1111122 
SCCF RECON,ioos:station:SCCF:56:1,2014-05-11T08:00:00Z,26.4645,-82.1044,1.61,34.55,1111122 
SCCF RECON,ioos:station:SCCF:56:1,2014-05-11T09:00:00Z,26.4645,-82.1044,1.53,34.68,1111122 
SCCF RECON,ioos:station:SCCF:56:1,2014-05-11T10:00:00Z,26.4645,-82.1044,1.47,34.73,1111122 
SCCF RECON,ioos:station:SCCF:56:1,2014-05-11T11:00:00Z,26.4645,-82.1044,1.44,34.66,1111122 
SCCF RECON,ioos:station:SCCF:56:1,2014-05-11T12:00:00Z,26.4645,-82.1044,1.461,34.3,1111122 
SCCF RECON,ioos:station:SCCF:56:1,2014-05-11T13:00:00Z,26.4645,-82.1044,1.54,34.34,1111122 
SCCF RECON,ioos:station:SCCF:56:1,2014-05-11T14:00:00Z,26.4645,-82.1044,1.631,34.35,1111122 
SCCF RECON,ioos:station:SCCF:56:1,2014-05-11T15:00:00Z,26.4645,-82.1044,1.724,34.33,1111122 
SCCF RECON,ioos:station:SCCF:56:1,2014-05-11T16:00:00Z,26.4645,-82.1044,1.802,34.3,1111122 
SCCF RECON,ioos:station:SCCF:56:1,2014-05-11T17:00:00Z,26.4645,-82.1044,1.83,34.33,1111122 
SCCF RECON,ioos:station:SCCF:56:1,2014-05-11T18:00:00Z,26.4645,-82.1044,1.82,34.32,1111122 
SCCF RECON,ioos:station:SCCF:56:1,2014-05-11T19:00:00Z,26.4645,-82.1044,1.76,34.4,1111122 